| time (UTC) | temp F | wind direction | speed knots | gust knots | rain 1hr in | rain 24hr in | rain mn in | humidity % | barometer mb |
| 20260831200502 | 86 | 315 | 2.6 | 4.3 | 0.00 | 0.00 | 0.00 | 45 | 1010.4 |
| 20260831200002 | 87 | 60 | 0.0 | 4.3 | 0.00 | 0.00 | 0.00 | 43 | 1010.3 |
| 20260831195504 | 87 | 69 | 0.9 | 4.3 | 0.00 | 0.00 | 0.00 | 42 | 1010.2 |
| 20260831195001 | 87 | 313 | 0.0 | 4.3 | 0.00 | 0.00 | 0.00 | 44 | 1010.1 |
| 20260831194623 | 87 | 65 | 1.7 | 4.3 | 0.00 | 0.00 | 0.00 | 41 | 1010.0 |
| 20260831194059 | 87 | 304 | 0.9 | 4.3 | 0.00 | 0.00 | 0.00 | 41 | 1010.1 |
| 20260831193600 | 86 | 16 | 0.0 | 4.3 | 0.00 | 0.00 | 0.00 | 43 | 1010.1 |
| 20260831193057 | 86 | 31 | 0.0 | 2.6 | 0.00 | 0.00 | 0.00 | 42 | 1010.1 |
| 20260831192559 | 85 | 6 | 0.0 | 6.1 | 0.00 | 0.00 | 0.00 | 44 | 1010.0 |
| 20260831192055 | 85 | 79 | 2.6 | 6.1 | 0.00 | 0.00 | 0.00 | 44 | 1009.9 |
| 20260831191555 | 85 | 54 | 0.0 | 7.0 | 0.00 | 0.00 | 0.00 | 45 | 1010.0 |
| 20260831191056 | 85 | 62 | 4.3 | 7.8 | 0.00 | 0.00 | 0.00 | 45 | 1010.0 |
| 20260831190554 | 85 | 285 | 1.7 | 7.0 | 0.00 | 0.00 | 0.00 | 45 | 1010.1 |
| 20260831190058 | 85 | 89 | 0.9 | 4.3 | 0.00 | 0.00 | 0.00 | 44 | 1010.1 |
| 20260831185553 | 85 | 14 | 0.9 | 4.3 | 0.00 | 0.00 | 0.00 | 47 | 1010.1 |
| 20260831185052 | 85 | 51 | 0.9 | 4.3 | 0.00 | 0.00 | 0.00 | 51 | 1010.2 |
| 20260831184552 | 85 | 320 | 0.9 | 4.3 | 0.00 | 0.00 | 0.00 | 54 | 1010.2 |
| 20260831184051 | 84 | 324 | 0.9 | 4.3 | 0.00 | 0.00 | 0.00 | 56 | 1010.0 |
| 20260831183550 | 84 | 25 | 0.9 | 4.3 | 0.00 | 0.00 | 0.00 | 53 | 1009.9 |
| 20260831183050 | 85 | 29 | 0.0 | 4.3 | 0.00 | 0.00 | 0.00 | 57 | 1010.0 |
| 20260831182553 | 86 | 71 | 0.0 | 5.2 | 0.00 | 0.00 | 0.00 | 53 | 1009.9 |
| 20260831182053 | 85 | 58 | 0.0 | 3.5 | 0.00 | 0.00 | 0.00 | 58 | 1009.9 |
| 20260831181548 | 84 | 341 | 0.0 | 4.3 | 0.00 | 0.00 | 0.00 | 55 | 1009.9 |
| 20260831181048 | 84 | 346 | 0.9 | 5.2 | 0.00 | 0.00 | 0.00 | 57 | 1010.0 |
| 20260831180548 | 83 | 336 | 0.9 | 5.2 | 0.00 | 0.00 | 0.00 | 60 | 1010.0 |
| 20260831180048 | 84 | 77 | 1.7 | 7.8 | 0.00 | 0.00 | 0.00 | 57 | 1010.0 |
| 20260831175548 | 85 | 67 | 2.6 | 7.8 | 0.00 | 0.00 | 0.00 | 56 | 1010.0 |
| 20260831175052 | 86 | 72 | 0.0 | 3.5 | 0.00 | 0.00 | 0.00 | 54 | 1010.0 |
| 20260831174547 | 86 | 328 | 0.0 | 3.5 | 0.00 | 0.00 | 0.00 | 55 | 1010.1 |
| 20260831174049 | 86 | 311 | 0.0 | 3.5 | 0.00 | 0.00 | 0.00 | 55 | 1010.1 |
| 20260831173548 | 85 | 311 | 0.0 | 4.3 | 0.00 | 0.00 | 0.00 | 57 | 1010.0 |
| 20260831173045 | 85 | 123 | 0.9 | 4.3 | 0.00 | 0.00 | 0.00 | 56 | 1010.1 |
| 20260831172543 | 84 | 30 | 0.0 | 4.3 | 0.00 | 0.00 | 0.00 | 62 | 1010.2 |
| 20260831172041 | 84 | 349 | 0.0 | 5.2 | 0.00 | 0.00 | 0.00 | 62 | 1010.3 |
| 20260831171540 | 83 | 57 | 0.0 | 6.1 | 0.00 | 0.00 | 0.00 | 63 | 1010.3 |
| 20260831171039 | 83 | 276 | 0.0 | 3.5 | 0.00 | 0.00 | 0.00 | 69 | 1010.3 |
| 20260831170538 | 83 | 63 | 0.0 | 3.5 | 0.00 | 0.00 | 0.00 | 69 | 1010.4 |
| 20260831170036 | 82 | 323 | 0.0 | 3.5 | 0.00 | 0.00 | 0.00 | 71 | 1010.3 |
| 20260831165535 | 81 | 321 | 0.0 | 4.3 | 0.00 | 0.00 | 0.00 | 74 | 1010.2 |
| 20260831165033 | 81 | 18 | 0.9 | 4.3 | 0.00 | 0.00 | 0.00 | 74 | 1010.3 |
| 20260831164531 | 80 | 94 | 0.0 | 2.6 | 0.00 | 0.00 | 0.00 | 76 | 1010.3 |
| 20260831164031 | 79 | 345 | 0.9 | 2.6 | 0.00 | 0.00 | 0.00 | 75 | 1010.3 |
| 20260831163530 | 79 | 46 | 0.0 | 4.3 | 0.00 | 0.00 | 0.00 | 77 | 1010.3 |
| 20260831163032 | 79 | 289 | 0.9 | 4.3 | 0.00 | 0.00 | 0.00 | 77 | 1010.3 |
| 20260831162529 | 79 | 321 | 0.0 | 1.7 | 0.00 | 0.00 | 0.00 | 80 | 1010.3 |
| 20260831162028 | 79 | 286 | 0.0 | 3.5 | 0.00 | 0.00 | 0.00 | 79 | 1010.3 |
| 20260831161532 | 79 | 328 | 0.0 | 3.5 | 0.00 | 0.00 | 0.00 | 79 | 1010.2 |
| 20260831161026 | 79 | 298 | 0.9 | 6.1 | 0.00 | 0.00 | 0.00 | 78 | 1010.2 |
| 20260831160526 | 79 | 326 | 0.0 | 6.1 | 0.00 | 0.00 | 0.00 | 78 | 1010.1 |
| 20260831160025 | 79 | 25 | 0.9 | 4.3 | 0.00 | 0.00 | 0.00 | 80 | 1010.1 |
| 20260831155524 | 78 | 277 | 0.0 | 2.6 | 0.00 | 0.00 | 0.00 | 81 | 1010.0 |
| 20260831155023 | 78 | 319 | 0.0 | 4.3 | 0.00 | 0.00 | 0.00 | 82 | 1010.0 |
| 20260831154522 | 78 | 354 | 0.0 | 4.3 | 0.00 | 0.00 | 0.00 | 83 | 1009.9 |
| 20260831154025 | 77 | 77 | 0.9 | 4.3 | 0.00 | 0.00 | 0.00 | 84 | 1009.9 |
| 20260831153520 | 77 | 322 | 0.0 | 2.6 | 0.00 | 0.00 | 0.00 | 85 | 1009.8 |
| 20260831153018 | 77 | 74 | 0.0 | 3.5 | 0.00 | 0.00 | 0.00 | 86 | 1009.8 |
| 20260831152518 | 77 | 300 | 0.0 | 3.5 | 0.00 | 0.00 | 0.00 | 86 | 1009.8 |
| 20260831152017 | 77 | 92 | 0.0 | 2.6 | 0.00 | 0.00 | 0.00 | 87 | 1009.7 |
| 20260831151517 | 76 | 1 | 0.0 | 2.6 | 0.00 | 0.00 | 0.00 | 88 | 1009.8 |
| 20260831151014 | 76 | 357 | 0.0 | 2.6 | 0.00 | 0.00 | 0.00 | 89 | 1009.7 |
| 20260831150513 | 76 | 62 | 0.0 | 2.6 | 0.00 | 0.00 | 0.00 | 88 | 1009.5 |
| 20260831150014 | 76 | 117 | 0.0 | 4.3 | 0.00 | 0.00 | 0.00 | 89 | 1009.4 |
| 20260831145510 | 76 | 335 | 0.0 | 5.2 | 0.00 | 0.00 | 0.00 | 88 | 1009.4 |
| 20260831145009 | 75 | 323 | 0.9 | 5.2 | 0.00 | 0.00 | 0.00 | 89 | 1009.3 |
| 20260831144509 | 75 | 44 | 0.0 | 4.3 | 0.00 | 0.00 | 0.00 | 90 | 1009.2 |
| 20260831144009 | 75 | 332 | 0.9 | 4.3 | 0.00 | 0.00 | 0.00 | 90 | 1009.2 |
| 20260831143509 | 75 | 343 | 0.0 | 6.1 | 0.00 | 0.00 | 0.00 | 92 | 1009.0 |
| 20260831143008 | 75 | 282 | 0.0 | 6.1 | 0.00 | 0.00 | 0.00 | 91 | 1009.0 |
| 20260831142507 | 75 | 278 | 0.0 | 4.3 | 0.00 | 0.00 | 0.00 | 92 | 1008.8 |
| 20260831142006 | 75 | 295 | 0.0 | 3.5 | 0.00 | 0.00 | 0.00 | 93 | 1008.8 |
| 20260831141504 | 75 | 307 | 0.0 | 5.2 | 0.00 | 0.00 | 0.00 | 94 | 1008.8 |
| 20260831141004 | 75 | 53 | 0.0 | 5.2 | 0.00 | 0.00 | 0.00 | 95 | 1008.8 |
| 20260831140505 | 74 | 278 | 0.0 | 4.3 | 0.00 | 0.00 | 0.00 | 96 | 1008.7 |
| 20260831140002 | 74 | 13 | 0.0 | 5.2 | 0.00 | 0.00 | 0.00 | 98 | 1008.7 |
| 20260831135600 | 74 | 259 | 0.0 | 5.2 | 0.00 | 0.00 | 0.00 | 98 | 1008.7 |
| 20260831135100 | 73 | 346 | 0.0 | 2.6 | 0.00 | 0.00 | 0.00 | 100 | 1008.6 |
| 20260831134559 | 73 | 301 | 0.0 | 4.3 | 0.00 | 0.00 | 0.00 | 100 | 1008.6 |
| 20260831134057 | 72 | 289 | 0.9 | 4.3 | 0.00 | 0.00 | 0.00 | 100 | 1008.5 |
| 20260831133556 | 72 | 323 | 0.9 | 2.6 | 0.00 | 0.00 | 0.00 | 100 | 1008.5 |
| 20260831133055 | 72 | 278 | 0.0 | 0.9 | 0.00 | 0.00 | 0.00 | 100 | 1008.4 |
| 20260831132554 | 71 | 311 | 0.0 | 0.9 | 0.00 | 0.00 | 0.00 | 100 | 1008.3 |
| 20260831132053 | 71 | 312 | 0.0 | 0.0 | 0.00 | 0.00 | 0.00 | 100 | 1008.1 |
| 20260831131556 | 70 | 292 | 0.0 | 0.9 | 0.00 | 0.00 | 0.00 | 100 | 1008.1 |
| 20260831131052 | 70 | 293 | 0.0 | 0.9 | 0.00 | 0.00 | 0.00 | 100 | 1008.1 |
| 20260831130552 | 70 | 290 | 0.0 | 0.9 | 0.00 | 0.00 | 0.00 | 100 | 1008.1 |
| 20260831130105 | 69 | 303 | 0.0 | 0.9 | 0.00 | 0.00 | 0.00 | 100 | 1008.0 |
| 20260831125552 | 69 | 298 | 0.0 | 0.9 | 0.00 | 0.00 | 0.00 | 100 | 1008.1 |
| 20260831125052 | 69 | 284 | 0.0 | 0.9 | 0.00 | 0.00 | 0.00 | 100 | 1008.1 |
| 20260831124551 | 68 | 240 | 0.0 | 0.9 | 0.00 | 0.00 | 0.00 | 100 | 1007.9 |
| 20260831124049 | 68 | 250 | 0.0 | 0.9 | 0.00 | 0.00 | 0.00 | 100 | 1007.9 |
| 20260831123549 | 68 | 284 | 0.0 | 1.7 | 0.00 | 0.00 | 0.00 | 100 | 1007.7 |
| 20260831123048 | 68 | 289 | 0.0 | 1.7 | 0.00 | 0.00 | 0.00 | 100 | 1007.6 |
| 20260831122547 | 67 | 294 | 0.0 | 1.7 | 0.00 | 0.00 | 0.00 | 100 | 1007.5 |
| 20260831122048 | 67 | 297 | 0.0 | 0.9 | 0.00 | 0.00 | 0.00 | 100 | 1007.5 |
| 20260831121545 | 67 | 243 | 0.0 | 0.9 | 0.00 | 0.00 | 0.00 | 100 | 1007.3 |
| 20260831121045 | 67 | 243 | 0.0 | 0.9 | 0.00 | 0.00 | 0.00 | 100 | 1007.3 |
| 20260831120544 | 67 | 248 | 0.0 | 0.0 | 0.00 | 0.00 | 0.00 | 100 | 1007.1 |
| 20260831120043 | 67 | 288 | 0.0 | 0.9 | 0.00 | 0.00 | 0.00 | 100 | 1006.9 |
| 20260831115542 | 68 | 288 | 0.0 | 0.9 | 0.00 | 0.00 | 0.00 | 100 | 1006.8 |
| 20260831115041 | 67 | 295 | 0.0 | 0.0 | 0.00 | 0.00 | 0.00 | 100 | 1006.7 |
| 20260831114541 | 68 | 295 | 0.0 | 0.0 | 0.00 | 0.00 | 0.00 | 100 | 1006.6 |
| 20260831114040 | 67 | 245 | 0.0 | 0.0 | 0.00 | 0.00 | 0.00 | 100 | 1006.4 |
| 20260831113540 | 68 | 245 | 0.0 | 0.0 | 0.00 | 0.00 | 0.00 | 100 | 1006.3 |
| 20260831113040 | 68 | 244 | 0.0 | 0.0 | 0.00 | 0.00 | 0.00 | 100 | 1006.4 |
| 20260831112539 | 68 | 245 | 0.0 | 0.9 | 0.00 | 0.00 | 0.00 | 100 | 1006.4 |
| 20260831112039 | 68 | 243 | 0.0 | 0.9 | 0.00 | 0.00 | 0.00 | 100 | 1006.4 |
| 20260831111537 | 68 | 293 | 0.0 | 0.0 | 0.00 | 0.00 | 0.00 | 100 | 1006.4 |
| 20260831111037 | 68 | 293 | 0.0 | 0.9 | 0.00 | 0.00 | 0.00 | 100 | 1006.4 |
| 20260831110537 | 68 | 276 | 0.0 | 0.9 | 0.00 | 0.00 | 0.00 | 100 | 1006.5 |
| 20260831110040 | 68 | 280 | 0.0 | 1.7 | 0.00 | 0.00 | 0.00 | 100 | 1006.5 |
| 20260831105539 | 68 | 290 | 0.0 | 0.9 | 0.00 | 0.00 | 0.00 | 100 | 1006.6 |
| 20260831105047 | 68 | 274 | 0.0 | 1.7 | 0.00 | 0.00 | 0.00 | 100 | 1006.5 |
| 20260831104539 | 68 | 260 | 0.0 | 1.7 | 0.00 | 0.00 | 0.00 | 100 | 1006.4 |
| 20260831104035 | 68 | 280 | 0.0 | 1.7 | 0.00 | 0.00 | 0.00 | 100 | 1006.4 |
| 20260831103534 | 68 | 278 | 0.0 | 1.7 | 0.00 | 0.00 | 0.00 | 100 | 1006.4 |
| 20260831103035 | 68 | 273 | 0.0 | 0.9 | 0.00 | 0.00 | 0.00 | 100 | 1006.4 |
| 20260831102533 | 68 | 243 | 0.0 | 1.7 | 0.00 | 0.00 | 0.00 | 100 | 1006.4 |
| 20260831102033 | 69 | 301 | 0.0 | 1.7 | 0.00 | 0.00 | 0.00 | 100 | 1006.4 |
| 20260831101538 | 69 | 246 | 0.0 | 1.7 | 0.00 | 0.00 | 0.00 | 100 | 1006.2 |
| 20260831101034 | 69 | 290 | 0.0 | 2.6 | 0.00 | 0.00 | 0.00 | 100 | 1006.3 |
| 20260831100531 | 69 | 277 | 0.0 | 2.6 | 0.00 | 0.00 | 0.00 | 100 | 1006.3 |
| 20260831100031 | 69 | 278 | 0.0 | 2.6 | 0.00 | 0.00 | 0.00 | 100 | 1006.1 |
| 20260831095631 | 69 | 280 | 0.0 | 2.6 | 0.00 | 0.00 | 0.00 | 100 | 1006.1 |
| 20260831095029 | 69 | 269 | 0.0 | 1.7 | 0.00 | 0.00 | 0.00 | 100 | 1006.1 |
| 20260831094528 | 69 | 264 | 0.0 | 2.6 | 0.00 | 0.00 | 0.00 | 100 | 1006.0 |
| 20260831094029 | 69 | 269 | 0.0 | 2.6 | 0.00 | 0.00 | 0.00 | 100 | 1005.9 |
| 20260831093529 | 69 | 252 | 0.0 | 2.6 | 0.00 | 0.00 | 0.00 | 100 | 1005.8 |
| 20260831093028 | 69 | 250 | 0.0 | 2.6 | 0.00 | 0.00 | 0.00 | 100 | 1005.9 |
| 20260831092528 | 69 | 284 | 0.0 | 1.7 | 0.00 | 0.00 | 0.00 | 100 | 1005.9 |
| 20260831092026 | 69 | 249 | 0.0 | 1.7 | 0.00 | 0.00 | 0.00 | 100 | 1005.8 |
| 20260831091526 | 69 | 243 | 0.0 | 1.7 | 0.00 | 0.00 | 0.00 | 100 | 1005.8 |
| 20260831091025 | 69 | 284 | 0.0 | 2.6 | 0.00 | 0.00 | 0.00 | 100 | 1005.9 |
| 20260831090526 | 70 | 260 | 0.0 | 2.6 | 0.00 | 0.00 | 0.00 | 100 | 1005.9 |
| 20260831090031 | 70 | 306 | 0.0 | 2.6 | 0.00 | 0.00 | 0.00 | 99 | 1005.8 |
| 20260831085525 | 70 | 264 | 0.0 | 2.6 | 0.00 | 0.00 | 0.00 | 99 | 1005.9 |
| 20260831085023 | 70 | 273 | 0.0 | 1.7 | 0.00 | 0.00 | 0.00 | 99 | 1005.9 |
| 20260831084523 | 70 | 277 | 0.0 | 1.7 | 0.00 | 0.00 | 0.00 | 99 | 1006.1 |
| 20260831084022 | 70 | 261 | 0.0 | 1.7 | 0.00 | 0.00 | 0.00 | 99 | 1006.0 |
| 20260831083522 | 70 | 290 | 0.0 | 1.7 | 0.00 | 0.00 | 0.00 | 99 | 1005.9 |
| 20260831083035 | 70 | 273 | 0.0 | 2.6 | 0.00 | 0.00 | 0.00 | 99 | 1005.8 |
| 20260831082524 | 70 | 271 | 0.0 | 2.6 | 0.00 | 0.00 | 0.00 | 99 | 1005.8 |
| 20260831082024 | 70 | 273 | 0.0 | 1.7 | 0.00 | 0.00 | 0.00 | 99 | 1005.7 |
| 20260831081521 | 70 | 298 | 0.0 | 1.7 | 0.00 | 0.00 | 0.00 | 99 | 1005.6 |
| 20260831081024 | 70 | 294 | 0.9 | 3.5 | 0.00 | 0.00 | 0.00 | 99 | 1005.6 |
| 20260831080520 | 70 | 253 | 0.9 | 4.3 | 0.00 | 0.00 | 0.00 | 99 | 1005.5 |
| 20260831080019 | 70 | 272 | 0.0 | 4.3 | 0.00 | 0.00 | 0.00 | 98 | 1005.4 |
| 20260831075519 | 70 | 243 | 0.9 | 3.5 | 0.00 | 0.00 | 0.00 | 98 | 1005.6 |
| 20260831075018 | 70 | 271 | 0.9 | 2.6 | 0.00 | 0.00 | 0.00 | 98 | 1005.6 |
| 20260831074518 | 71 | 240 | 0.0 | 3.5 | 0.00 | 0.00 | 0.00 | 98 | 1005.7 |
| 20260831074018 | 71 | 278 | 0.9 | 2.6 | 0.00 | 0.00 | 0.00 | 98 | 1005.8 |
| 20260831073517 | 71 | 290 | 0.9 | 4.3 | 0.00 | 0.00 | 0.00 | 98 | 1005.7 |
| 20260831073017 | 71 | 257 | 1.7 | 6.1 | 0.00 | 0.00 | 0.00 | 98 | 1005.7 |
| 20260831072517 | 71 | 253 | 2.6 | 6.1 | 0.00 | 0.00 | 0.00 | 98 | 1005.6 |
| 20260831072015 | 71 | 259 | 1.7 | 4.3 | 0.00 | 0.00 | 0.00 | 98 | 1005.6 |
| 20260831071515 | 71 | 247 | 0.9 | 3.5 | 0.00 | 0.00 | 0.00 | 98 | 1005.7 |
| 20260831071014 | 71 | 238 | 1.7 | 4.3 | 0.00 | 0.00 | 0.00 | 98 | 1005.7 |
| 20260831070516 | 71 | 236 | 1.7 | 4.3 | 0.00 | 0.00 | 0.00 | 97 | 1005.6 |
| 20260831070023 | 71 | 234 | 0.0 | 4.3 | 0.00 | 0.00 | 0.00 | 97 | 1005.6 |
| 20260831065513 | 71 | 311 | 1.7 | 4.3 | 0.00 | 0.00 | 0.00 | 97 | 1005.7 |
| 20260831065012 | 71 | 255 | 0.9 | 4.3 | 0.00 | 0.00 | 0.00 | 97 | 1005.7 |
| 20260831064511 | 71 | 236 | 1.7 | 4.3 | 0.00 | 0.00 | 0.00 | 97 | 1005.9 |
| 20260831064010 | 71 | 231 | 0.0 | 4.3 | 0.00 | 0.00 | 0.00 | 97 | 1005.9 |
| 20260831063510 | 71 | 200 | 0.9 | 6.1 | 0.00 | 0.00 | 0.00 | 96 | 1005.9 |
| 20260831063010 | 71 | 292 | 1.7 | 6.1 | 0.00 | 0.00 | 0.00 | 96 | 1005.7 |
| 20260831062512 | 71 | 259 | 0.9 | 10.4 | 0.00 | 0.00 | 0.00 | 96 | 1005.8 |
| 20260831062011 | 72 | 280 | 2.6 | 10.4 | 0.00 | 0.00 | 0.00 | 96 | 1005.9 |
| 20260831061508 | 72 | 189 | 0.9 | 7.0 | 0.00 | 0.00 | 0.00 | 96 | 1005.9 |
| 20260831061008 | 72 | 209 | 1.7 | 7.8 | 0.00 | 0.00 | 0.00 | 95 | 1006.0 |
| 20260831060506 | 72 | 246 | 2.6 | 7.8 | 0.00 | 0.00 | 0.00 | 95 | 1006.1 |
| 20260831060006 | 72 | 253 | 1.7 | 7.0 | 0.00 | 0.00 | 0.00 | 95 | 1006.1 |
| 20260831055506 | 72 | 262 | 2.6 | 6.1 | 0.00 | 0.00 | 0.00 | 95 | 1006.1 |
| 20260831055005 | 72 | 166 | 0.9 | 6.1 | 0.00 | 0.00 | 0.00 | 95 | 1006.1 |
| 20260831054505 | 72 | 166 | 1.7 | 6.1 | 0.00 | 0.00 | 0.00 | 94 | 1006.1 |
| 20260831054004 | 72 | 245 | 2.6 | 7.0 | 0.00 | 0.00 | 0.00 | 94 | 1006.1 |
| 20260831053503 | 72 | 174 | 2.6 | 7.0 | 0.00 | 0.00 | 0.00 | 94 | 1006.1 |
| 20260831053003 | 72 | 252 | 2.6 | 6.1 | 0.00 | 0.00 | 0.00 | 94 | 1006.2 |
| 20260831052502 | 72 | 253 | 1.7 | 6.1 | 0.00 | 0.00 | 0.00 | 93 | 1006.2 |
| 20260831052002 | 72 | 238 | 0.9 | 6.1 | 0.00 | 0.00 | 0.00 | 93 | 1006.3 |
| 20260831051601 | 72 | 218 | 1.7 | 6.1 | 0.00 | 0.00 | 0.00 | 93 | 1006.5 |
| 20260831051159 | 73 | 295 | 1.7 | 5.2 | 0.00 | 0.00 | 0.00 | 93 | 1006.5 |
| 20260831050558 | 73 | 238 | 0.9 | 6.1 | 0.00 | 0.00 | 0.00 | 92 | 1006.5 |
| 20260831050508 | 73 | 255 | 0.9 | 6.1 | 0.00 | 0.00 | 0.00 | 92 | 1006.5 |
| 20260831050122 | 73 | 270 | 0.9 | 6.1 | 0.00 | 0.00 | 0.00 | 92 | 1006.6 |
| 20260831045557 | 73 | 240 | 0.9 | 7.8 | 0.00 | 0.00 | 0.00 | 92 | 1006.7 |
| 20260831045058 | 73 | 243 | 1.7 | 7.8 | 0.00 | 0.00 | 0.00 | 92 | 1006.8 |
| 20260831044604 | 73 | 210 | 2.6 | 5.2 | 0.00 | 0.00 | 0.00 | 92 | 1006.9 |
| 20260831044056 | 73 | 224 | 0.9 | 6.1 | 0.00 | 0.00 | 0.00 | 91 | 1007.1 |
| 20260831043556 | 73 | 176 | 1.7 | 6.1 | 0.00 | 0.00 | 0.00 | 91 | 1007.2 |
| 20260831043056 | 73 | 190 | 1.7 | 6.1 | 0.00 | 0.00 | 0.00 | 91 | 1007.2 |
| 20260831042555 | 74 | 298 | 0.9 | 5.2 | 0.00 | 0.00 | 0.00 | 91 | 1007.3 |
| 20260831032049 | 75 | 182 | 2.6 | 8.7 | 0.00 | 0.00 | 0.00 | 88 | 1007.0 |
| 20260831031549 | 75 | 165 | 2.6 | 7.8 | 0.00 | 0.00 | 0.00 | 88 | 1007.0 |
| 20260831025043 | 76 | 132 | 1.7 | 7.0 | 0.00 | 0.00 | 0.00 | 87 | 1006.8 |
| 20260831024538 | 76 | 214 | 2.6 | 7.8 | 0.00 | 0.00 | 0.00 | 86 | 1006.7 |
| 20260831024030 | 76 | 156 | 2.6 | 7.8 | 0.00 | 0.00 | 0.00 | 86 | 1006.6 |
| 20260831023530 | 76 | 250 | 0.9 | 7.0 | 0.00 | 0.00 | 0.00 | 86 | 1006.6 |
| 20260831023032 | 76 | 127 | 1.7 | 7.0 | 0.00 | 0.00 | 0.00 | 86 | 1006.6 |
| 20260831022529 | 76 | 231 | 0.9 | 4.3 | 0.00 | 0.00 | 0.00 | 85 | 1006.6 |
| 20260831022029 | 77 | 165 | 1.7 | 6.1 | 0.00 | 0.00 | 0.00 | 86 | 1006.7 |
| 20260831021538 | 77 | 180 | 1.7 | 6.1 | 0.00 | 0.00 | 0.00 | 86 | 1006.6 |
| 20260831021029 | 77 | 153 | 0.9 | 5.2 | 0.00 | 0.00 | 0.00 | 86 | 1006.8 |
| 20260831020533 | 77 | 228 | 1.7 | 5.2 | 0.00 | 0.00 | 0.00 | 86 | 1006.8 |
| 20260831020032 | 77 | 152 | 0.9 | 5.2 | 0.00 | 0.00 | 0.00 | 87 | 1006.7 |
| 20260831015532 | 77 | 183 | 0.9 | 5.2 | 0.00 | 0.00 | 0.00 | 87 | 1006.8 |
| 20260831015028 | 77 | 236 | 0.0 | 5.2 | 0.00 | 0.00 | 0.00 | 87 | 1006.7 |
| 20260831014528 | 77 | 143 | 0.9 | 5.2 | 0.00 | 0.00 | 0.00 | 87 | 1006.7 |
| 20260831014030 | 78 | 214 | 0.0 | 3.5 | 0.00 | 0.00 | 0.00 | 86 | 1006.7 |
| 20260831013528 | 78 | 166 | 0.0 | 3.5 | 0.00 | 0.00 | 0.00 | 86 | 1006.6 |
| 20260831013028 | 78 | 109 | 0.0 | 3.5 | 0.00 | 0.00 | 0.00 | 85 | 1006.6 |
| 20260831012528 | 78 | 194 | 0.0 | 2.6 | 0.00 | 0.00 | 0.00 | 85 | 1006.6 |
| 20260831012027 | 78 | 95 | 0.0 | 2.6 | 0.00 | 0.00 | 0.00 | 85 | 1006.5 |
| 20260831011542 | 79 | 90 | 0.0 | 2.6 | 0.00 | 0.00 | 0.00 | 84 | 1006.4 |
| 20260831011027 | 79 | 100 | 0.0 | 0.9 | 0.00 | 0.00 | 0.00 | 83 | 1006.4 |
| 20260831010527 | 79 | 82 | 0.0 | 2.6 | 0.00 | 0.00 | 0.00 | 83 | 1006.5 |
| 20260831010029 | 79 | 85 | 0.0 | 3.5 | 0.00 | 0.00 | 0.00 | 83 | 1006.4 |
| 20260831005527 | 79 | 72 | 0.0 | 3.5 | 0.00 | 0.00 | 0.00 | 82 | 1006.3 |
| 20260831005027 | 80 | 86 | 0.9 | 3.5 | 0.00 | 0.00 | 0.00 | 82 | 1006.3 |
| 20260831004526 | 80 | 103 | 0.9 | 4.3 | 0.00 | 0.00 | 0.00 | 82 | 1006.3 |
| 20260831004026 | 80 | 100 | 0.9 | 4.3 | 0.00 | 0.00 | 0.00 | 81 | 1006.4 |
| 20260831001020 | 81 | 98 | 1.7 | 4.3 | 0.00 | 0.00 | 0.00 | 78 | 1006.4 |
| 20260831000519 | 82 | 83 | 1.7 | 6.1 | 0.00 | 0.00 | 0.00 | 78 | 1006.4 |
| 20260831000019 | 82 | 94 | 1.7 | 6.1 | 0.00 | 0.00 | 0.00 | 77 | 1006.3 |
| 20260830235518 | 82 | 93 | 2.6 | 6.1 | 0.00 | 0.00 | 0.00 | 77 | 1006.3 |
| 20260830235018 | 82 | 99 | 0.9 | 5.2 | 0.00 | 0.00 | 0.00 | 77 | 1006.3 |
| 20260830234518 | 82 | 106 | 1.7 | 5.2 | 0.00 | 0.00 | 0.00 | 77 | 1006.3 |
| 20260830234021 | 82 | 93 | 1.7 | 7.0 | 0.00 | 0.00 | 0.00 | 76 | 1006.3 |
| 20260830233517 | 82 | 114 | 2.6 | 8.7 | 0.00 | 0.00 | 0.00 | 76 | 1006.2 |
| 20260830233022 | 82 | 93 | 2.6 | 6.1 | 0.00 | 0.00 | 0.00 | 76 | 1006.1 |
| 20260830232516 | 83 | 95 | 0.9 | 10.4 | 0.00 | 0.00 | 0.00 | 75 | 1006.2 |
| 20260830232015 | 83 | 250 | 2.6 | 10.4 | 0.00 | 0.00 | 0.00 | 75 | 1006.2 |
| 20260830231516 | 83 | 84 | 1.7 | 7.8 | 0.00 | 0.00 | 0.00 | 75 | 1006.2 |
| 20260830231018 | 83 | 87 | 3.5 | 7.8 | 0.00 | 0.00 | 0.00 | 74 | 1006.4 |
| 20260830230515 | 83 | 96 | 0.9 | 6.1 | 0.00 | 0.00 | 0.00 | 76 | 1006.5 |
| 20260830230015 | 83 | 77 | 0.0 | 6.1 | 0.00 | 0.00 | 0.00 | 75 | 1006.4 |
| 20260830225515 | 83 | 72 | 0.0 | 7.0 | 0.00 | 0.00 | 0.00 | 76 | 1006.3 |
| 20260830225014 | 83 | 96 | 1.7 | 7.0 | 0.00 | 0.00 | 0.00 | 75 | 1006.2 |
| 20260830224518 | 83 | 86 | 1.7 | 6.1 | 0.00 | 0.00 | 0.00 | 73 | 1006.3 |
| 20260830224013 | 83 | 71 | 0.9 | 6.1 | 0.00 | 0.00 | 0.00 | 74 | 1006.3 |
| 20260830223513 | 83 | 124 | 1.7 | 5.2 | 0.00 | 0.00 | 0.00 | 74 | 1006.3 |
| 20260830223012 | 83 | 119 | 0.9 | 7.0 | 0.00 | 0.00 | 0.00 | 75 | 1006.2 |
| 20260830222511 | 83 | 316 | 1.7 | 7.0 | 0.00 | 0.00 | 0.00 | 75 | 1006.2 |
| 20260830222009 | 83 | 103 | 0.9 | 5.2 | 0.00 | 0.00 | 0.00 | 76 | 1006.3 |
| 20260830221509 | 83 | 104 | 0.9 | 7.0 | 0.00 | 0.00 | 0.00 | 76 | 1006.3 |
| 20260830221009 | 83 | 122 | 2.6 | 7.0 | 0.00 | 0.00 | 0.00 | 76 | 1006.3 |
| 20260830220508 | 83 | 132 | 1.7 | 6.1 | 0.00 | 0.00 | 0.00 | 76 | 1006.3 |
| 20260830220007 | 82 | 357 | 0.9 | 7.8 | 0.00 | 0.00 | 0.00 | 77 | 1006.4 |
| 20260830215507 | 82 | 153 | 2.6 | 7.8 | 0.00 | 0.00 | 0.00 | 76 | 1006.5 |
| 20260830215004 | 82 | 75 | 0.9 | 7.8 | 0.00 | 0.00 | 0.00 | 78 | 1006.6 |
| 20260830214504 | 82 | 86 | 1.7 | 11.3 | 0.00 | 0.00 | 0.00 | 78 | 1006.6 |
| 20260830214003 | 82 | 115 | 3.5 | 11.3 | 0.00 | 0.00 | 0.00 | 77 | 1006.7 |
| 20260830213503 | 82 | 47 | 3.5 | 6.1 | 0.00 | 0.00 | 0.00 | 77 | 1006.7 |
| 20260830213005 | 82 | 106 | 0.9 | 7.0 | 0.00 | 0.00 | 0.00 | 79 | 1006.6 |
| 20260830212500 | 81 | 98 | 1.7 | 9.6 | 0.00 | 0.00 | 0.00 | 79 | 1006.6 |
| 20260830212101 | 81 | 89 | 5.2 | 9.6 | 0.00 | 0.00 | 0.00 | 78 | 1006.7 |
| 20260830211603 | 81 | 79 | 0.9 | 8.7 | 0.00 | 0.00 | 0.00 | 79 | 1006.8 |
| 20260830211057 | 81 | 106 | 3.5 | 8.7 | 0.00 | 0.00 | 0.00 | 79 | 1006.8 |
| 20260830210558 | 81 | 93 | 2.6 | 7.8 | 0.00 | 0.00 | 0.00 | 81 | 1006.9 |
| 20260830210056 | 80 | 99 | 3.5 | 10.4 | 0.00 | 0.00 | 0.00 | 79 | 1007.0 |
| 20260830205556 | 81 | 86 | 3.5 | 10.4 | 0.00 | 0.00 | 0.00 | 80 | 1007.2 |
| 20260830205055 | 80 | 122 | 5.2 | 12.2 | 0.00 | 0.00 | 0.00 | 79 | 1007.1 |
| 20260830204555 | 80 | 79 | 5.2 | 12.2 | 0.00 | 0.00 | 0.00 | 79 | 1007.1 |
| 20260830204055 | 81 | 93 | 2.6 | 9.6 | 0.00 | 0.00 | 0.00 | 79 | 1007.3 |
| 20260830203553 | 81 | 117 | 5.2 | 10.4 | 0.00 | 0.00 | 0.00 | 80 | 1007.2 |
| 20260830203052 | 80 | 95 | 3.5 | 8.7 | 0.00 | 0.00 | 0.00 | 79 | 1007.2 |
| 20260830202554 | 80 | 115 | 2.6 | 7.0 | 0.00 | 0.00 | 0.00 | 81 | 1007.2 |
| 20260830202048 | 79 | 136 | 1.7 | 10.4 | 0.00 | 0.00 | 0.00 | 82 | 1007.0 |
| 20260830201549 | 79 | 123 | 4.3 | 10.4 | 0.00 | 0.00 | 0.00 | 81 | 1007.1 |
| 20260830201047 | 79 | 174 | 1.7 | 10.4 | 0.00 | 0.00 | 0.00 | 84 | 1007.3 |